User: anonymous   Login
Location: Campestrin
(46.4667°N, 11.7167°E)
Time: 16:07:38
(UTC+00:00)
Language:

Cosmos 1190 Rocket - Orbit

View from above orbital plane
View from above orbital plane
View from above satellite
View from above satellite

Ground track
Ground track

The orbit data is extracted from the following two-line orbital elements,

1 11870U 80056B   21169.04862920  .00000002  00000-0  94997-5 0  9991
2 11870  74.0544  42.7495 0016439 348.7538  11.3245 14.37025466144783
Epoch (UTC): 18 June 2021 01:10:01
Eccentricity: 0.0016439
inclination: 74.0544°
perigee height: 756 km
apogee height: 780 km
right ascension of ascending node: 42.7495°
argument of perigee: 348.7538°
revolutions per day: 14.37025466
mean anomaly at epoch: 11.3245°
orbit number at epoch: 14478

The dashed part of the orbit path shows where the satellite is in the earth's shadow,  

DLR